When you browse on this site, cookies collect data to enhance your experience and personalize the content and advertising you see.
Visit our Privacy Policy to learn more. By continuing to use the site, you agree to this use of cookies and data.

Hourly Weather Prutz

Today, 7 July, Tuesday

Time Temperature Precipitation Wind Pressure Humidity
00:00 +6°C° 0.1 mm 2 mps 634 mmHg 95%
01:00 +7°C° 0 mm 2 mps 634 mmHg 98%
02:00 +6°C° 0.1 mm 2 mps 634 mmHg 97%
03:00 +6°C° 0.1 mm 2 mps 634 mmHg 96%
04:00 +6°C° 0.1 mm 2 mps 634 mmHg 95%
05:00 +7°C° 0 mm 1 mps 635 mmHg 91%
06:00 +8°C° 0 mm 1 mps 635 mmHg 87%
07:00 +9°C° 0 mm 1 mps 635 mmHg 84%
08:00 +11°C° 0 mm 1 mps 636 mmHg 73%
09:00 +12°C° 0 mm 1 mps 636 mmHg 61%
10:00 +14°C° 0 mm 1 mps 637 mmHg 50%
11:00 +16°C° 0 mm 1 mps 637 mmHg 45%
12:00 +17°C° 0 mm 2 mps 637 mmHg 39%
13:00 +20°C° 0 mm 1 mps 638 mmHg 34%
14:00 +19°C° 0 mm 2 mps 638 mmHg 34%
15:00 +19°C° 0 mm 2 mps 637 mmHg 34%
16:00 +19°C° 0 mm 2 mps 637 mmHg 33%
17:00 +18°C° 0 mm 2 mps 637 mmHg 43%
18:00 +16°C° 0 mm 2 mps 637 mmHg 52%
19:00 +15°C° 0 mm 2 mps 636 mmHg 62%
20:00 +13°C° 0 mm 1 mps 636 mmHg 71%
21:00 +11°C° 0 mm 1 mps 635 mmHg 81%
22:00 +7°C° 0 mm 0 mps 634 mmHg 91%
23:00 +7°C° 0 mm 0 mps 634 mmHg 90%

Tomorrow, 8 July, Wednesday

Time Temperature Precipitation Wind Pressure Humidity
00:00 +8°C° 0 mm 1 mps 634 mmHg 90%
01:00 +8°C° 0 mm 1 mps 634 mmHg 89%
02:00 +8°C° 0 mm 1 mps 634 mmHg 88%
03:00 +8°C° 0 mm 1 mps 634 mmHg 86%
04:00 +8°C° 0 mm 1 mps 634 mmHg 85%
05:00 +10°C° 0 mm 1 mps 635 mmHg 76%
06:00 +12°C° 0 mm 1 mps 635 mmHg 67%
07:00 +14°C° 0 mm 1 mps 636 mmHg 58%
08:00 +16°C° 0 mm 1 mps 637 mmHg 52%
09:00 +19°C° 0 mm 1 mps 637 mmHg 46%
10:00 +21°C° 0 mm 1 mps 638 mmHg 41%
11:00 +22°C° 0 mm 1 mps 638 mmHg 39%
12:00 +21°C° 0 mm 2 mps 638 mmHg 38%
13:00 +23°C° 0 mm 2 mps 638 mmHg 37%
14:00 +23°C° 0 mm 2 mps 638 mmHg 37%
15:00 +22°C° 0 mm 3 mps 638 mmHg 38%
16:00 +22°C° 0 mm 3 mps 638 mmHg 38%
17:00 +20°C° 0 mm 3 mps 638 mmHg 48%
18:00 +19°C° 0 mm 2 mps 637 mmHg 57%
19:00 +17°C° 0 mm 2 mps 637 mmHg 67%
20:00 +15°C° 0 mm 2 mps 637 mmHg 74%
21:00 +13°C° 0 mm 1 mps 636 mmHg 82%
22:00 +11°C° 0 mm 1 mps 636 mmHg 89%
23:00 +10°C° 0 mm 1 mps 636 mmHg 89%

Day after tomorrow, 9 July, Thursday

Time Temperature Precipitation Wind Pressure Humidity
00:00 +10°C° 0 mm 1 mps 636 mmHg 89%
01:00 +10°C° 0 mm 1 mps 636 mmHg 88%
02:00 +10°C° 0 mm 1 mps 636 mmHg 88%
03:00 +10°C° 0 mm 1 mps 635 mmHg 87%
04:00 +9°C° 0 mm 1 mps 635 mmHg 86%
05:00 +12°C° 0 mm 1 mps 636 mmHg 76%
06:00 +14°C° 0 mm 1 mps 637 mmHg 67%
07:00 +15°C° 0 mm 0 mps 638 mmHg 58%
08:00 +19°C° 0 mm 1 mps 638 mmHg 52%
09:00 +20°C° 0 mm 1 mps 639 mmHg 46%
10:00 +22°C° 0 mm 1 mps 639 mmHg 39%
11:00 +23°C° 0 mm 1 mps 639 mmHg 39%
12:00 +24°C° 0 mm 1 mps 639 mmHg 38%
13:00 +25°C° 0 mm 1 mps 639 mmHg 37%
14:00 +24°C° 0 mm 2 mps 639 mmHg 39%
15:00 +24°C° 0 mm 2 mps 639 mmHg 42%
16:00 +24°C° 0 mm 2 mps 638 mmHg 44%
17:00 +21°C° 0.1 mm 2 mps 638 mmHg 54%
18:00 +20°C° 0.1 mm 2 mps 638 mmHg 64%
19:00 +20°C° 0.1 mm 1 mps 637 mmHg 74%
20:00 +18°C° 0.1 mm 1 mps 637 mmHg 79%
21:00 +15°C° 0.1 mm 1 mps 636 mmHg 84%
22:00 +12°C° 0.1 mm 0 mps 636 mmHg 90%
23:00 +13°C° 0 mm 1 mps 636 mmHg 89%

10 July, Friday

Time Temperature Precipitation Wind Pressure Humidity
00:00 +13°C° 0 mm 1 mps 635 mmHg 89%
01:00 +13°C° 0 mm 1 mps 635 mmHg 88%
02:00 +12°C° 0 mm 1 mps 635 mmHg 88%
03:00 +12°C° 0 mm 1 mps 635 mmHg 88%
04:00 +12°C° 0 mm 1 mps 634 mmHg 88%
05:00 +14°C° 0 mm 1 mps 635 mmHg 83%
06:00 +16°C° 0 mm 1 mps 635 mmHg 77%
07:00 +17°C° 0 mm 0 mps 636 mmHg 71%
08:00 +19°C° 0 mm 0 mps 636 mmHg 63%
09:00 +22°C° 0 mm 1 mps 637 mmHg 55%
10:00 +24°C° 0 mm 1 mps 637 mmHg 47%
11:00 +24°C° 0.2 mm 1 mps 637 mmHg 46%
12:00 +25°C° 0.2 mm 1 mps 637 mmHg 46%
13:00 +25°C° 0.2 mm 1 mps 637 mmHg 45%
14:00 +23°C° 1 mm 1 mps 636 mmHg 56%
15:00 +21°C° 1 mm 1 mps 635 mmHg 68%
16:00 +19°C° 1 mm 1 mps 634 mmHg 80%
17:00 +19°C° 1.7 mm 1 mps 634 mmHg 83%
18:00 +18°C° 1.7 mm 1 mps 634 mmHg 87%
19:00 +18°C° 1.7 mm 1 mps 635 mmHg 90%
20:00 +16°C° 2.3 mm 1 mps 635 mmHg 93%
21:00 +15°C° 2.3 mm 1 mps 635 mmHg 95%
22:00 +14°C° 2.3 mm 1 mps 635 mmHg 97%
23:00 +14°C° 2.8 mm 1 mps 634 mmHg 97%

11 July, Saturday

Time Temperature Precipitation Wind Pressure Humidity
00:00 +14°C° 2.8 mm 2 mps 634 mmHg 97%
01:00 +13°C° 2.8 mm 2 mps 634 mmHg 97%
02:00 +13°C° 1.9 mm 2 mps 634 mmHg 97%
03:00 +12°C° 1.9 mm 2 mps 634 mmHg 98%
04:00 +12°C° 1.9 mm 2 mps 633 mmHg 98%
05:00 +10°C° 1.1 mm 2 mps 634 mmHg 97%
06:00 +10°C° 1.1 mm 2 mps 634 mmHg 97%
07:00 +10°C° 1.1 mm 3 mps 634 mmHg 97%
08:00 +9°C° 1.7 mm 3 mps 634 mmHg 96%
09:00 +9°C° 1.7 mm 3 mps 634 mmHg 96%
10:00 +8°C° 1.7 mm 3 mps 634 mmHg 95%
11:00 +9°C° 0.7 mm 2 mps 635 mmHg 92%
12:00 +10°C° 0.7 mm 2 mps 635 mmHg 90%
13:00 +10°C° 0.7 mm 2 mps 636 mmHg 87%
14:00 +12°C° 0.3 mm 2 mps 636 mmHg 83%
15:00 +13°C° 0.3 mm 2 mps 636 mmHg 80%
16:00 +12°C° 0.3 mm 3 mps 637 mmHg 76%
17:00 +12°C° 0.2 mm 3 mps 636 mmHg 79%
18:00 +11°C° 0.2 mm 3 mps 636 mmHg 82%
19:00 +10°C° 0.2 mm 2 mps 636 mmHg 85%
20:00 +9°C° 0 mm 2 mps 637 mmHg 88%
21:00 +8°C° 0 mm 2 mps 637 mmHg 92%
22:00 +8°C° 0 mm 1 mps 637 mmHg 95%
23:00 +7°C° 0 mm 1 mps 637 mmHg 95%

12 July, Sunday

Time Temperature Precipitation Wind Pressure Humidity
00:00 +7°C° 0 mm 1 mps 637 mmHg 94%
01:00 +7°C° 0 mm 1 mps 637 mmHg 94%
02:00 +6°C° 0 mm 1 mps 637 mmHg 94%
03:00 +6°C° 0 mm 1 mps 637 mmHg 93%
04:00 +5°C° 0 mm 1 mps 636 mmHg 93%
05:00 +6°C° 0 mm 1 mps 637 mmHg 86%
06:00 +8°C° 0 mm 1 mps 638 mmHg 80%
07:00 +9°C° 0 mm 1 mps 638 mmHg 73%
08:00 +11°C° 0 mm 1 mps 639 mmHg 63%
09:00 +13°C° 0 mm 1 mps 639 mmHg 54%
10:00 +15°C° 0 mm 2 mps 640 mmHg 44%
11:00 +16°C° 0 mm 2 mps 640 mmHg 41%
12:00 +17°C° 0 mm 2 mps 641 mmHg 39%
13:00 +19°C° 0 mm 2 mps 641 mmHg 36%
14:00 +19°C° 0 mm 2 mps 641 mmHg 37%
15:00 +19°C° 0 mm 2 mps 641 mmHg 37%
16:00 +19°C° 0 mm 2 mps 641 mmHg 38%
17:00 +18°C° 0 mm 2 mps 640 mmHg 47%
18:00 +17°C° 0 mm 2 mps 640 mmHg 57%
19:00 +15°C° 0 mm 2 mps 640 mmHg 66%
20:00 +13°C° 0 mm 1 mps 639 mmHg 74%
21:00 +10°C° 0 mm 1 mps 638 mmHg 82%
22:00 +7°C° 0 mm 0 mps 638 mmHg 90%
23:00 +7°C° 0 mm 0 mps 637 mmHg 90%
Show more